Kelso-Longview, WA
on Friday, November 9, 2012

Friday
Previous Day Next Day
Daily Summary
 ActualAverage (KSPB)Record (KSPB)
Temperature
Mean Temperature °F / °C °F / °C  
Max Temperature 48°F / 9°C °F / °C 61°F / 16°C (2003)
Min Temperature 30°F / -1°C °F / °C 28°F / -2°C (2001)
Degree Days
Heating Degree Days 26    
Month to date heating degree days  
Since 1 July heating degree days  
Cooling Degree Days 0    
Month to date cooling degree days  
Year to date cooling degree days  
Moisture
Dew Point 33°F / 1°C   
Average Humidity 84    
Maximum Humidity 93    
Minimum Humidity 66    
Precipitation
Precipitation 0.00 in / 0.00 cm in / cm 0.77 in / 1.96 cm (2010)
Month to date precipitation  
Year to date precipitation  
Wind
Wind Speed 1 mph / 2 km/h   
Max Wind Speed 7 mph / 11 km/h   
Max Gust Speed mph / km/h   
Visibility 7 miles / 12 kilometers   
Events     

Key: T is trace of precipitation, MM is missing value
Source: NWS Daily Summary
Time(PST)TemperatureDew PointHumidity Pressure Visibility Wind DirectionWind SpeedGust SpeedPrecipitationEvents Conditions
12:15 AM 32.0°F / 0.0°C 30.2°F / -1.0°C 93% 29.86 in / 1011.1 hPa 8.0 miles / 12.9 kilometers Calm Calm - N/A   Mostly Cloudy
12:35 AM 32.0°F / 0.0°C 30.2°F / -1.0°C 93% 29.87 in / 1011.4 hPa 10.0 miles / 16.1 kilometers Calm Calm - N/A   Overcast
12:55 AM 33.8°F / 1.0°C 30.2°F / -1.0°C 87% 29.86 in / 1011.1 hPa 10.0 miles / 16.1 kilometers Calm Calm - N/A   Overcast
1:15 AM 33.8°F / 1.0°C 30.2°F / -1.0°C 87% 29.86 in / 1011.1 hPa 10.0 miles / 16.1 kilometers Calm Calm - N/A   Overcast
1:35 AM 33.8°F / 1.0°C 32.0°F / 0.0°C 93% 29.87 in / 1011.4 hPa 1.0 miles / 1.6 kilometers Calm Calm - N/A   Overcast
1:55 AM 35.6°F / 2.0°C 32.0°F / 0.0°C 87% 29.87 in / 1011.4 hPa 0.5 miles / 0.8 kilometers Calm Calm - N/A   Overcast
2:15 AM 35.6°F / 2.0°C 32.0°F / 0.0°C 87% 29.87 in / 1011.4 hPa 0.2 miles / 0.4 kilometers Calm Calm - N/A   Overcast
2:35 AM 33.8°F / 1.0°C 32.0°F / 0.0°C 93% 29.88 in / 1011.7 hPa 0.5 miles / 0.8 kilometers North 3.5 mph / 5.6 km/h - N/A   Overcast
2:55 AM 33.8°F / 1.0°C 32.0°F / 0.0°C 93% 29.88 in / 1011.7 hPa 0.8 miles / 1.2 kilometers Calm Calm - N/A   Overcast
3:15 AM 35.6°F / 2.0°C 32.0°F / 0.0°C 87% 29.88 in / 1011.7 hPa 1.0 miles / 1.6 kilometers Calm Calm - N/A   Overcast
3:55 AM 35.6°F / 2.0°C 33.8°F / 1.0°C 93% 29.88 in / 1011.7 hPa 0.5 miles / 0.8 kilometers Calm Calm - N/A   Overcast
4:15 AM 35.6°F / 2.0°C 33.8°F / 1.0°C 93% 29.88 in / 1011.7 hPa 0.5 miles / 0.8 kilometers Calm Calm - N/A   Overcast
4:35 AM 35.6°F / 2.0°C 33.8°F / 1.0°C 93% 29.88 in / 1011.7 hPa 0.5 miles / 0.8 kilometers SE 3.5 mph / 5.6 km/h - N/A   Overcast
4:55 AM 35.6°F / 2.0°C 32.0°F / 0.0°C 87% 29.89 in / 1012.1 hPa 1.8 miles / 2.8 kilometers SSE 3.5 mph / 5.6 km/h - N/A   Overcast
5:15 AM 33.8°F / 1.0°C 32.0°F / 0.0°C 93% 29.89 in / 1012.1 hPa 1.0 miles / 1.6 kilometers Calm Calm - N/A   Overcast
5:35 AM 35.6°F / 2.0°C 32.0°F / 0.0°C 87% 29.89 in / 1012.1 hPa 0.8 miles / 1.2 kilometers Calm Calm - N/A   Overcast
5:55 AM 33.8°F / 1.0°C 32.0°F / 0.0°C 93% 29.89 in / 1012.1 hPa 0.2 miles / 0.4 kilometers NNW 3.5 mph / 5.6 km/h - N/A   Overcast
6:15 AM 33.8°F / 1.0°C 30.2°F / -1.0°C 87% 29.89 in / 1012.1 hPa 0.5 miles / 0.8 kilometers Calm Calm - N/A   Overcast
6:55 AM 33.8°F / 1.0°C 32.0°F / 0.0°C 93% 29.89 in / 1012.1 hPa 1.2 miles / 2.0 kilometers Calm Calm - N/A   Overcast
7:15 AM 35.6°F / 2.0°C 32.0°F / 0.0°C 87% 29.90 in / 1012.4 hPa 6.0 miles / 9.7 kilometers Calm Calm - N/A   Overcast
7:35 AM 35.6°F / 2.0°C 32.0°F / 0.0°C 87% 29.90 in / 1012.4 hPa 8.0 miles / 12.9 kilometers Calm Calm - N/A   Overcast
7:55 AM 35.6°F / 2.0°C 32.0°F / 0.0°C 87% 29.90 in / 1012.4 hPa 10.0 miles / 16.1 kilometers Calm Calm - N/A   Overcast
8:15 AM 35.6°F / 2.0°C 32.0°F / 0.0°C 87% 29.91 in / 1012.8 hPa 10.0 miles / 16.1 kilometers Calm Calm - N/A   Overcast
8:35 AM 35.6°F / 2.0°C 32.0°F / 0.0°C 87% 29.91 in / 1012.8 hPa 10.0 miles / 16.1 kilometers Calm Calm - N/A   Overcast
8:55 AM 35.6°F / 2.0°C 33.8°F / 1.0°C 93% 29.91 in / 1012.8 hPa 10.0 miles / 16.1 kilometers Calm Calm - N/A   Overcast
9:15 AM 35.6°F / 2.0°C 33.8°F / 1.0°C 93% 29.91 in / 1012.8 hPa 10.0 miles / 16.1 kilometers Calm Calm - N/A   Overcast
9:35 AM 37.4°F / 3.0°C 33.8°F / 1.0°C 87% 29.91 in / 1012.8 hPa 10.0 miles / 16.1 kilometers Calm Calm - N/A   Overcast
9:55 AM 37.4°F / 3.0°C 33.8°F / 1.0°C 87% 29.91 in / 1012.8 hPa 10.0 miles / 16.1 kilometers Calm Calm - N/A   Overcast
10:15 AM 37.4°F / 3.0°C 33.8°F / 1.0°C 87% 29.92 in / 1013.1 hPa 10.0 miles / 16.1 kilometers Calm Calm - N/A   Overcast
10:35 AM 39.2°F / 4.0°C 33.8°F / 1.0°C 81% 29.92 in / 1013.1 hPa 10.0 miles / 16.1 kilometers Calm Calm - N/A   Overcast
10:55 AM 39.2°F / 4.0°C 33.8°F / 1.0°C 81% 29.91 in / 1012.8 hPa 10.0 miles / 16.1 kilometers Calm Calm - N/A   Overcast
11:15 AM 41.0°F / 5.0°C 35.6°F / 2.0°C 81% 29.91 in / 1012.8 hPa 10.0 miles / 16.1 kilometers SSE 3.5 mph / 5.6 km/h - N/A   Overcast
11:35 AM 42.8°F / 6.0°C 37.4°F / 3.0°C 81% 29.90 in / 1012.4 hPa 10.0 miles / 16.1 kilometers SE 4.6 mph / 7.4 km/h - N/A   Overcast
11:55 AM 44.6°F / 7.0°C 37.4°F / 3.0°C 76% 29.90 in / 1012.4 hPa 10.0 miles / 16.1 kilometers South 6.9 mph / 11.1 km/h - N/A   Overcast
12:15 PM 44.6°F / 7.0°C 37.4°F / 3.0°C 76% 29.89 in / 1012.1 hPa 10.0 miles / 16.1 kilometers South 6.9 mph / 11.1 km/h - N/A   Mostly Cloudy
12:35 PM 44.6°F / 7.0°C 37.4°F / 3.0°C 76% 29.89 in / 1012.1 hPa 10.0 miles / 16.1 kilometers South 6.9 mph / 11.1 km/h - N/A   Mostly Cloudy
12:55 PM 44.6°F / 7.0°C 37.4°F / 3.0°C 76% 29.88 in / 1011.7 hPa 10.0 miles / 16.1 kilometers SSE 3.5 mph / 5.6 km/h - N/A   Mostly Cloudy
1:15 PM 46.4°F / 8.0°C 37.4°F / 3.0°C 71% 29.88 in / 1011.7 hPa 10.0 miles / 16.1 kilometers SW 3.5 mph / 5.6 km/h - N/A   Partly Cloudy
1:35 PM 44.6°F / 7.0°C 37.4°F / 3.0°C 76% 29.88 in / 1011.7 hPa 10.0 miles / 16.1 kilometers Calm Calm - N/A   Clear
1:55 PM 46.4°F / 8.0°C 37.4°F / 3.0°C 71% 29.87 in / 1011.4 hPa 10.0 miles / 16.1 kilometers Calm Calm - N/A   Clear
2:15 PM 46.4°F / 8.0°C 37.4°F / 3.0°C 71% 29.87 in / 1011.4 hPa 10.0 miles / 16.1 kilometers SE 3.5 mph / 5.6 km/h - N/A   Scattered Clouds
2:35 PM 48.2°F / 9.0°C 37.4°F / 3.0°C 66% 29.86 in / 1011.1 hPa 10.0 miles / 16.1 kilometers Calm Calm - N/A   Scattered Clouds
2:55 PM 46.4°F / 8.0°C 35.6°F / 2.0°C 66% 29.87 in / 1011.4 hPa 10.0 miles / 16.1 kilometers Calm Calm - N/A   Clear
3:15 PM 46.4°F / 8.0°C 35.6°F / 2.0°C 66% 29.86 in / 1011.1 hPa 10.0 miles / 16.1 kilometers Calm Calm - N/A   Mostly Cloudy
3:35 PM 46.4°F / 8.0°C 37.4°F / 3.0°C 71% 29.86 in / 1011.1 hPa 10.0 miles / 16.1 kilometers Calm Calm - N/A   Overcast
3:55 PM 46.4°F / 8.0°C 37.4°F / 3.0°C 71% 29.86 in / 1011.1 hPa 10.0 miles / 16.1 kilometers Calm Calm - N/A   Scattered Clouds
4:15 PM 46.4°F / 8.0°C 37.4°F / 3.0°C 71% 29.86 in / 1011.1 hPa 10.0 miles / 16.1 kilometers Calm Calm - N/A   Clear
4:35 PM 44.6°F / 7.0°C 35.6°F / 2.0°C 71% 29.87 in / 1011.4 hPa 10.0 miles / 16.1 kilometers Calm Calm - N/A   Clear
4:55 PM 44.6°F / 7.0°C 35.6°F / 2.0°C 71% 29.87 in / 1011.4 hPa 10.0 miles / 16.1 kilometers Calm Calm - N/A   Clear
5:15 PM 42.8°F / 6.0°C 35.6°F / 2.0°C 76% 29.87 in / 1011.4 hPa 10.0 miles / 16.1 kilometers Calm Calm - N/A   Clear
5:35 PM 41.0°F / 5.0°C 35.6°F / 2.0°C 81% 29.88 in / 1011.7 hPa 10.0 miles / 16.1 kilometers East 3.5 mph / 5.6 km/h - N/A   Clear
5:55 PM 39.2°F / 4.0°C 33.8°F / 1.0°C 81% 29.89 in / 1012.1 hPa 10.0 miles / 16.1 kilometers NNE 3.5 mph / 5.6 km/h - N/A   Clear
6:15 PM 37.4°F / 3.0°C 33.8°F / 1.0°C 87% 29.89 in / 1012.1 hPa 10.0 miles / 16.1 kilometers Calm Calm - N/A   Clear
6:35 PM 37.4°F / 3.0°C 33.8°F / 1.0°C 87% 29.89 in / 1012.1 hPa 10.0 miles / 16.1 kilometers Calm Calm - N/A   Clear
6:55 PM 37.4°F / 3.0°C 32.0°F / 0.0°C 81% 29.89 in / 1012.1 hPa 10.0 miles / 16.1 kilometers Calm Calm - N/A   Clear
7:15 PM 35.6°F / 2.0°C 33.8°F / 1.0°C 93% 29.90 in / 1012.4 hPa 10.0 miles / 16.1 kilometers Calm Calm - N/A   Clear
7:35 PM 35.6°F / 2.0°C 32.0°F / 0.0°C 87% 29.90 in / 1012.4 hPa 10.0 miles / 16.1 kilometers Calm Calm - N/A   Clear
7:55 PM 35.6°F / 2.0°C 32.0°F / 0.0°C 87% 29.91 in / 1012.8 hPa 10.0 miles / 16.1 kilometers Calm Calm - N/A   Clear
8:15 PM 33.8°F / 1.0°C 30.2°F / -1.0°C 87% 29.91 in / 1012.8 hPa 10.0 miles / 16.1 kilometers Calm Calm - N/A   Clear
8:35 PM 33.8°F / 1.0°C 30.2°F / -1.0°C 87% 29.91 in / 1012.8 hPa 8.0 miles / 12.9 kilometers Calm Calm - N/A   Clear
8:55 PM 33.8°F / 1.0°C 28.4°F / -2.0°C 81% 29.92 in / 1013.1 hPa 10.0 miles / 16.1 kilometers Calm Calm - N/A   Clear
9:15 PM 33.8°F / 1.0°C 30.2°F / -1.0°C 87% 29.92 in / 1013.1 hPa 9.0 miles / 14.5 kilometers Calm Calm - N/A   Clear
9:35 PM 33.8°F / 1.0°C 30.2°F / -1.0°C 87% 29.93 in / 1013.4 hPa 10.0 miles / 16.1 kilometers Calm Calm - N/A   Clear
9:55 PM 32.0°F / 0.0°C 28.4°F / -2.0°C 87% 29.92 in / 1013.1 hPa 9.0 miles / 14.5 kilometers Calm Calm - N/A   Clear
10:15 PM 30.2°F / -1.0°C 28.4°F / -2.0°C 93% 29.93 in / 1013.4 hPa 7.0 miles / 11.3 kilometers Calm Calm - N/A   Clear
10:35 PM 30.2°F / -1.0°C 28.4°F / -2.0°C 93% 29.93 in / 1013.4 hPa 8.0 miles / 12.9 kilometers Calm Calm - N/A   Scattered Clouds
10:55 PM 30.2°F / -1.0°C 28.4°F / -2.0°C 93% 29.92 in / 1013.1 hPa 7.0 miles / 11.3 kilometers Calm Calm - N/A   Mostly Cloudy
11:15 PM 30.2°F / -1.0°C 28.4°F / -2.0°C 93% 29.95 in / 1014.1 hPa 8.0 miles / 12.9 kilometers Calm Calm - N/A   Mostly Cloudy
11:35 PM 30.2°F / -1.0°C 26.6°F / -3.0°C 86% 29.95 in / 1014.1 hPa 1.0 miles / 1.6 kilometers Calm Calm - N/A   Overcast
11:55 PM 30.2°F / -1.0°C 26.6°F / -3.0°C 86% 29.95 in / 1014.1 hPa 0.2 miles / 0.4 kilometers Calm Calm - N/A   Overcast
Moon Phase
Nov. 09 Nov. 13 Nov. 20 Nov. 28 Dec. 06
Sunrise:07:04 AM (PST) Moon Rise:01:54 AM (PST)11/9
Sunset:04:45 PM (PST) Moon Set:02:14 PM (PST)11/9

Copyright © 2014 The Weather Underground, Inc.